www.pogodaiklimat.ru

Погода и климат >> Архив погоды >> Россия >> Кировская область >> Опарино


ПОГОДА в Опарино

  • Прогноз погоды в Опарино
  • Монитор погоды в Опарино
  • Климат города

АРХИВ ПОГОДЫ в Опарино

Время (UTC), дата Ветер
(напр.,м/с)
 
Видим.   Явления Облачность Т
(С)
Тd
(С)
f
(%)
Тe
(С)
Тes
(С)
Комфортность P
(гПа)
Po
(гПа)
Тmin
(С)
Tmax
(С)
R
(мм)
R24
(мм)
S
(см)
12 18.05 ЮВ 2-2
{7}
50 км гроза без осадков {ливн. осадки} 9/9 600 м
[Cb cap]
+20.0 +16.0 78 +23 +24 комфорт 1007.6 986.9
15 18.05 В 2-3
{6}
50 км в посл. час ливневой дождь {гроза} 6/5 600 м
[Cb calv Ci fib]
+19.8 +16.7 82 +23 +24 комфорт 1006.9 986.2 +21.6 4
18 18.05 СВ 1-1
{4}
50 км {гроза, ливн. осадки} 9/3 600 м
[Cb cap Ci fib]
+16.2 +15.5 96 +17 +17 1007.2 986.2
21 18.05 В 1-2
{4}
50 км 4/0
[Ci fib]
+12.7 +12.1 96 +13 +13 1006.8 985.5
00 19.05 штиль 0
{2}
50 км 10/0
[Ac As]
+11.6 +11.2 97 +11 +11 1004.9 983.6
03 19.05 Ю 1-1
{4}
50 км в посл. час ливневой дождь {гроза} 10/10 300 м
[Cb cap]
+13.0 +12.6 97 +13 +13 1003.7 982.5 +11.0 2
06 19.05 Ю 3-5
{7}
50 км {гроза, ливн. осадки} 8/8 600 м
[Cb cap]
+18.2 +14.6 80 +19 +20 1002.7 982.0
09 19.05 Ю 4-6
{8}
50 км 9/9 600 м
[Cb cap]
+21.8 +13.1 58 +24 +25 комфорт 1001.2 980.8
12 19.05 З 3-3
{8}
50 км {ливн. осадки} 9/9 600 м
[Cb calv]
+22.4 +12.6 54 +25 +26 комфорт 1000.5 980.1
15 19.05 С 3-6
{14}
50 км гроза без осадков {ливн. осадки} 9/9 600 м
[Cb cap]
+18.3 +13.9 76 +19 +19 1000.8 980.1 +23.1 0.3
18 19.05 ЮВ 6-7
{8}
50 км {гроза} 10/10 600 м
[Cb calv]
+16.4 +10.4 68 +15 +15 1002.1 981.2
21 19.05 С 4-6
{9}
11 км слабый ливневой дождь 9/9 600 м
[Cb cap]
+10.6 +9.2 91 +8 +8 1004.7 983.3
00 20.05 С 3-5
{10}
50 км {ливн. осадки} 10/10 600 м
[Sc]
+8.0 +7.8 99 +5 +5 1006.2 984.6
03 20.05 СЗ 4-6
{10}
50 км {ливн. осадки} 10/10 600 м
[Sc]
+4.4 +4.2 99 -0 -0 1009.1 987.2 +4.4 4
06 20.05 С 3-7
{10}
50 км {ливн. осадки} 10/10 600 м
[Sc]
+3.8 +2.6 92 -0 -0 1011.8 989.7 +3.3
09 20.05 С 3-7
{9}
50 км 10/10 600 м
[Sc]
+4.6 +2.6 87 +1 +1 1014.9 992.7
12 20.05 СЗ 3-7
{9}
50 км 10/10 600 м
[Sc]
+6.2 +2.8 79 +3 +3 1016.9 994.9
15 20.05 СЗ 3-6
{8}
50 км 3/0
[Ci fib]
+10.7 +1.7 54 +9 +10 1017.5 995.9 +10.7
18 20.05 СЗ 1-2
{6}
50 км ясно +5.7 +4.5 92 +4 +4 1020.0 997.8
21 20.05 С 1-1
{3}
50 км ясно +5.4 +4.5 94 +4 +4 1021.7 999.5
00 21.05 СЗ 1-1
{2}
50 км 3/3 600 м
[Sc]
+1.0 +0.5 96 -1 -1 1023.2 1000.7
03 21.05 штиль 0
{1}
50 км ясно +5.6 +2.9 83 +5 +8 1024.9 1002.6 +0.4
06 21.05 ЮЗ 2-3
{5}
50 км 5/0
[Ac trans]
+14.3 +3.6 49 +14 +21 1025.1 1003.5
09 21.05 З 3-4
{8}
50 км 8/8 600 м
[Cu Sc]
+17.2 +0.9 33 +17 +19 1024.7 1003.3
12 21.05 З 2-5
{9}
50 км 8/8 600 м
[Cu Sc]
+18.0 +3.2 37 +19 +20 1024.4 1003.0
15 21.05 З 3-6
{8}
50 км 3/1 1000 м
[Cu hum Ci fib]
+19.7 +1.5 30 +20 +22 1024.1 1003.0 +20.0
18 21.05 СЗ 1-1
{7}
50 км 5/0
[Ci fib]
+13.0 +8.0 72 +13 +13 1024.8 1003.1
21 21.05 З 1-1
{2}
50 км 9/0
[Ci fib]
+8.3 +5.0 80 +8 +8 1025.4 1003.3
00 22.05 З 2-3
{3}
50 км 3/0
[Ac lent]
+10.7 +4.3 65 +10 +10 1025.7 1003.8
03 22.05 З 2-3
{4}
50 км 3/0
[Ac trans]
+12.5 +4.6 59 +12 +14 1026.0 1004.3 +7.3
06 22.05 СЗ 2-5
{7}
50 км 1/0
[Ci fib]
+21.6 +5.9 36 +22 +32 комфорт 1025.6 1004.5
09 22.05 З 4-8
{10}
50 км ясно +24.2 +5.8 31 +24 +33 комфорт 1025.5 1004.6
12 22.05 З 2-6
{10}
50 км ясно +25.2 +6.7 31 +25 +34 комфорт 1024.8 1003.9
15 22.05 З 2-4
{7}
50 км ясно +26.2 +5.9 27 +26 +27 жарко 1023.9 1003.1 +26.9
18 22.05 ЮЗ 1-1
{4}
50 км ясно +17.0 +8.0 55 +18 +18 1024.1 1002.7
21 22.05 ЮЗ 2-3
{4}
50 км ясно +15.9 +7.6 58 +16 +16 1023.7 1002.4
00 23.05 ЮЗ 2-3
{4}
50 км ясно +13.7 +6.7 63 +13 +13 1023.6 1002.1
03 23.05 ЮЗ 2-3
{5}
50 км 9/9 600 м
[Sc]
+14.9 +7.0 59 +15 +15 1023.2 1001.8 +11.2
06 23.05 ЮЗ 2-3
{5}
50 км 9/8 600 м
[Cb calv Ci sp]
+18.7 +8.5 51 +20 +22 1021.4 1000.3
09 23.05 ЮЗ 6-6
{14}
50 км {ливн. осадки} 4/4 1000 м
[Cu hum Ci sp]
+23.2 +5.0 31 +23 +27 комфорт 1018.2 997.4
12 23.05 ЮЗ 6-9
{14}
50 км {ливн. осадки} 9/8 600 м
[Cb cap Ci fib]
+25.0 +7.1 32 +25 +26 комфорт 1015.3 994.7
15 23.05 З 7-9
{13}
50 км 9/8 600 м
[Cb calv Ci fib]
+24.1 +7.8 35 +24 +25 комфорт 1013.5 992.8 +25.4 0.0
18 23.05 З 1-3
{10}
50 км 4/4 600 м
[Cu med, cong]
+19.8 +7.8 46 +22 +22 комфорт 1013.5 992.6
21 23.05 З 2-4
{7}
50 км 10/10 600 м
[Cu Sc]
+17.6 +8.0 53 +18 +18 1014.4 993.3
00 24.05 СЗ 2-4
{8}
50 км 9/9 300 м
[Sc]
+14.3 +10.3 77 +14 +14 1015.2 993.9
03 24.05 СЗ 2-5
{7}
50 км 8/8 600 м
[Cu med, cong]
+13.7 +11.2 85 +13 +14 1016.5 995.1 +13.7
06 24.05 С 3-6
{11}
50 км 9/9 600 м
[Cb calv]
+10.5 +7.0 79 +9 +9 1019.8 998.1 +9.6
09 24.05 С 2-4
{8}
50 км 6/6 1000 м
[Sc]
+9.7 +3.4 65 +8 +14 1021.6 999.8
12 24.05 С 3-7
{11}
50 км 4/3 1000 м
[Cu hum Ac trans Ci fib]
+13.2 +1.3 44 +12 +17 1021.2 999.6
15 24.05 С 5-7
{9}
50 км 5/5 1000 м
[Cb calv]
+12.4 -1.7 37 +11 +11 1021.3 999.6 +14.3
18 24.05 С 2-3
{9}
50 км 9/9 1000 м
[Sc]
+9.1 -0.9 50 +8 +8 1022.0 1000.1
21 24.05 С 1-3
{5}
50 км 9/9 1000 м
[Sc]
+6.2 +0.6 67 +5 +5 1022.3 1000.1
00 25.05 С 2-3
{5}
50 км 10/10 1000 м
[Sc]
+5.0 -0.3 69 +3 +3 1022.9 1000.6
03 25.05 С 3-4
{6}
50 км 5/4 1000 м
[Cu hum Ci fib]
+6.4 -1.0 59 +4 +5 1022.3 1001.1 +4.5
06 25.05 С 4-9
{10}
50 км 8/8 600 м
[Cb cap]
+7.4 -1.9 52 +4 +6 1023.5 1001.4
09 25.05 С 5-10
{11}
50 км 8/8 600 м
[Cb cap]
+8.6 -6.4 34 +6 +7 1024.1 1002.1

 

Местоположение метеостанции Опарино (Кировская область, Россия): широта 59.85 долгота 48.28 высота над уровнем моря 180 м.

В архиве по умолчанию представлена погода в Опарино за последнюю неделю. Архивные данные за месяц целиком и за предыдущие месяцы, начиная с января 2011 года, Вы можете получить, выбрав интересующий диапазон дат из раскрывающегося списка и нажав кнопку "Ввод!".


*Определитесь, кто Вы:
робот инопланетянин человек

Внимание! Время в таблицах - всемирное. Для получения местного времени необходимо прибавить поправку, которая в Опарино равна 3 ч.

Смотрите также архив погоды в соседних городах и на ближайших метеорологических станциях:

Погода в Объячеве (Коми, Россия) (95 км)
Погода в Лальске (Кировская область, Россия) (102 км)
Погода в Даровском (Кировская область, Россия) (121 км)
Погода в Вохме (Костромская область, Россия) (133 км)
Погода в Вилегодском (Архангельская область, Россия) (142 км)
Погода в Великом Устюге (Вологодская область, Россия) (150 км)
Погода в Нагорске (Кировская область, Россия) (155 км)
Погода в Кирове (Кировская область, Россия) (159 км)
Погода в Никольске (Вологодская область, Россия) (162 км)
Погода в Койгородке (Коми, Россия) (163 км)

Пояснения к столбцам:

Ветер - указаны скорость ветра в м/с - средняя за 10 мин, порывы в срок и между сроками (в фигурных скобках) и направление, откуда дует ветер: С - северный, СВ - северо-восточный, В - восточный, ЮВ - юго-восточный, Ю - южный, ЮЗ - юго-западный, З - западный, СЗ - северо-западный.
Видимость - горизонтальная дальность видимости в метрах или километрах. При видимости от 1 до 10 км при отсутствии осадков обычно наблюдается дымка, при ухудшении видимости до 1 км и менее - туман. В сухую погоду видимость может ухудшаться дымом, пылью или мглою.
Явления - указаны атмосферные явления, наблюдавшиеся в срок или в последний час перед сроком; фигурными скобками обозначены явления, наблюдавшиеся между сроками (за 1-3 часа до срока); квадратными скобками обозначены град или гололедные отложения с указанием их диаметра в мм.
Облачность - указаны через наклонную черту общая и нижняя облачность в баллах и высота нижней границы облаков в метрах; квадратными скобками обозначены формы облаков: Ci - перистые, Cs - перисто-слоистые, Cc - перисто-кучевые, Ac - высококучевые, As - высокослоистые, Sc - слоисто-кучевые, Ns - слоисто-дождевые, Cu - кучевые, Cb - кучево-дождевые. Подробнее классификацию облаков см. в Атласе облаков (PDF).
T - Температура воздуха - температура, измеренная на высоте 2 м над землей.
Td - Температура точки росы - температура, при понижении до которой содержащийся в воздухе водяной пар достигнет насыщения.
f - Относительная влажность воздуха - влажноcть воздуха, измеренная на высоте 2 м над землей.
Te - Эффективная температура - температура, которую ощущает одетый по сезону человек в тени. Характеристика душности погоды. При расчете учитывается влияние влажности воздуха и скорости ветра на теплоощущения человека.
Tes - Эффективная температура на солнце - температура, которую ощущает человек, с поправкой на солнечный нагрев. Характеристика знойности погоды. Зависит от высоты солнца над горизонтом, облачности и скорости ветра. Ночью, в пасмурную погоду, а также при ветре 12 м/с и более поправка равна нулю.
P - Атмосферное давление - приведенное к уровню моря атмосферное давление.
Po - Атмосферное давление - измеренное на уровне метеостанции атмосферное давление.
Tmin - Минимальная температура - минимум температуры воздуха на высоте 2 м над землей.
Tmax - Максимальная температура - максимум температуры воздуха на высоте 2 м над землей.
R - Количество осадков - Количество выпавших осадков за период времени, мм. При наведении курсора мыши на число - период времени, за который выпало указанное количество осадков.
R24 - Количество осадков - Количество выпавших осадков за 24 часа, мм.
S - Снежный покров - Высота снежного покрова, см. При наведении курсора мыши на число - состояние снежного покрова и степень покрытия местности в баллах.